"Pseudo-MPEC" for p0000i

Created 2025 Apr 18 22:31:07 UT using Find_Orb

Click here for an explanation of pseudo-MPECs

 
 Astrometry: 
     p0000i * C2025 03 28.60660917 43 33.837+44 06 31.24   ~3TN2 21.93wXNEOCPF52
     p0000i   C2025 03 28.61510017 43 33.773+44 06 30.59   ~3TN2 22.0 wXNEOCPF52
     p0000i   C2025 03 28.62353317 43 33.758+44 06 30.09   ~3TN2 21.89wXNEOCPF52
     p0000i   C2025 03 28.63190317 43 33.801+44 06 29.10   ~3TN2 21.77wXNEOCPF52

Station data:
(F52) Pan-STARRS 2, Haleakala  (N20.707382 W156.255910)  US/Hawaii.
   Observers J. Bulger, T. Dukes, T. Lowe, A. Schultz, M. Willman. Measurers
   K. Chambers, S. Chastel, T. de Boer, L. Denneau, J. Fairlamb, H.
   Flewelling, M. Huber, C.-C. Lin, E. Magnier, Y. Ramanjooloo, R. Wainscoat,
   R. Weryk. 1.8-m Ritchey-Chrétien + CCD.

Orbital elements:  p0000i
   Perihelion 2025 May 15.49391 +/- 62.2 TT = 11:51:13 (JD 2460810.99391)
Epoch 2025 Mar 29.0 TT = JDT 2460763.5   Earth MOID: 0.0474   Ju: 0.3132
M 351.43413633 +/- 52               (J2000 ecliptic)             AutoNEOCP
n   0.18035710 +/- 0.25             Peri.  199.06691 +/- 90
a   3.10251491 +/- 2.87             Node    38.68946 +/- 38
e   0.6674080 +/- 0.255             Incl.   57.65119 +/- 14
P   5.46476                H 20.45  G  0.15   U 11.8  SR
q 1.03187153 +/- 0.269    Q 5.17315829 +/- 4.19
From 4 observations 2025 Mar. 28 (36.4 min); mean residual 0".22
Residuals in arcseconds: 
250328 F52  .29+  .02-    250328 F52  .31-  .17+    
250328 F52  .28-  .01-    250328 F52  .30+  .12-    

Ephemerides (geocentric):
Date (UTC) HH   RA             Dec           delta  r     elong  mag " sig PA
---- --------  ------------   ------------  ------ ------ -----  --- --------
2025 04 18 23  17 15 43.845   +40 25 51.05  .21361 1.0943 109.5 19.4  59d 123
2025 04 19 00  17 15 32.178   +40 24 16.25  .21283 1.0941 109.6 19.4  59d 123
2025 04 19 01  17 15 20.427   +40 22 40.63  .21206 1.0939 109.6 19.4  59d 123
2025 04 19 02  17 15 08.592   +40 21 04.18  .21129 1.0937 109.7 19.4  59d 123
2025 04 19 03  17 14 56.672   +40 19 26.89  .21052 1.0935 109.7 19.4  59d 123
2025 04 19 04  17 14 44.666   +40 17 48.74  .20975 1.0934 109.8 19.4  59d 123
2025 04 19 05  17 14 32.573   +40 16 09.74  .20897 1.0932 109.9 19.4  59d 123
2025 04 19 06  17 14 20.394   +40 14 29.86  .20820 1.0930 109.9 19.4  59d 123
2025 04 19 07  17 14 08.126   +40 12 49.10  .20743 1.0928 110.0 19.4  59d 123
2025 04 19 08  17 13 55.769   +40 11 07.44  .20666 1.0926 110.1 19.4  59d 123
2025 04 19 09  17 13 43.322   +40 09 24.88  .20589 1.0924 110.1 19.3  59d 123
2025 04 19 10  17 13 30.784   +40 07 41.41  .20512 1.0922 110.2 19.3  59d 123
2025 04 19 11  17 13 18.155   +40 05 57.01  .20435 1.0921 110.2 19.3  59d 123
2025 04 19 12  17 13 05.433   +40 04 11.67  .20358 1.0919 110.3 19.3  59d 122
2025 04 19 13  17 12 52.618   +40 02 25.38  .20280 1.0917 110.4 19.3  59d 122
2025 04 19 14  17 12 39.709   +40 00 38.13  .20203 1.0915 110.4 19.3  59d 122
2025 04 19 15  17 12 26.705   +39 58 49.91  .20126 1.0913 110.5 19.3  59d 122
2025 04 19 16  17 12 13.604   +39 57 00.71  .20049 1.0911 110.6 19.3  59d 122
2025 04 19 17  17 12 00.406   +39 55 10.51  .19972 1.0910 110.6 19.3  59d 122
2025 04 19 18  17 11 47.111   +39 53 19.30  .19895 1.0908 110.7 19.3  59d 122
2025 04 19 19  17 11 33.716   +39 51 27.06  .19818 1.0906 110.8 19.3  59d 122
2025 04 19 20  17 11 20.222   +39 49 33.80  .19741 1.0904 110.8 19.2  59d 122
2025 04 19 21  17 11 06.626   +39 47 39.48  .19664 1.0902 110.9 19.2  59d 122
2025 04 19 22  17 10 52.929   +39 45 44.10  .19587 1.0900 111.0 19.2  59d 122
2025 04 19 23  17 10 39.129   +39 43 47.65  .19510 1.0899 111.0 19.2  59d 122
2025 04 20 00  17 10 25.225   +39 41 50.11  .19433 1.0897 111.1 19.2  59d 122
2025 04 20 01  17 10 11.216   +39 39 51.47  .19356 1.0895 111.2 19.2  59d 122
2025 04 20 02  17 09 57.101   +39 37 51.72  .19279 1.0893 111.2 19.2  59d 122
2025 04 20 03  17 09 42.879   +39 35 50.83  .19202 1.0891 111.3 19.2  59d 122
2025 04 20 04  17 09 28.548   +39 33 48.80  .19126 1.0890 111.4 19.2  59d 122
2025 04 20 05  17 09 14.109   +39 31 45.60  .19049 1.0888 111.4 19.2  59d 122
2025 04 20 06  17 08 59.559   +39 29 41.24  .18972 1.0886 111.5 19.1  59d 122
2025 04 20 07  17 08 44.898   +39 27 35.68  .18895 1.0884 111.6 19.1  59d 122
2025 04 20 08  17 08 30.124   +39 25 28.91  .18818 1.0882 111.7 19.1  59d 121
2025 04 20 09  17 08 15.236   +39 23 20.93  .18741 1.0881 111.7 19.1  59d 121
2025 04 20 10  17 08 00.233   +39 21 11.70  .18665 1.0879 111.8 19.1  59d 121
2025 04 20 11  17 07 45.115   +39 19 01.22  .18588 1.0877 111.9 19.1  59d 121
2025 04 20 12  17 07 29.878   +39 16 49.47  .18511 1.0875 111.9 19.1  59d 121
2025 04 20 13  17 07 14.524   +39 14 36.44  .18434 1.0873 112.0 19.1  59d 121
2025 04 20 14  17 06 59.050   +39 12 22.09  .18358 1.0872 112.1 19.1  59d 121
2025 04 20 15  17 06 43.454   +39 10 06.43  .18281 1.0870 112.2 19.1  60d 121
2025 04 20 16  17 06 27.737   +39 07 49.42  .18204 1.0868 112.2 19.0  60d 121
2025 04 20 17  17 06 11.895   +39 05 31.05  .18128 1.0866 112.3 19.0  60d 121
2025 04 20 18  17 05 55.929   +39 03 11.31  .18051 1.0865 112.4 19.0  60d 121
2025 04 20 19  17 05 39.837   +39 00 50.17  .17974 1.0863 112.5 19.0  60d 121
2025 04 20 20  17 05 23.618   +38 58 27.61  .17898 1.0861 112.6 19.0  60d 121
2025 04 20 21  17 05 07.269   +38 56 03.62  .17821 1.0859 112.6 19.0  60d 121
2025 04 20 22  17 04 50.790   +38 53 38.17  .17744 1.0858 112.7 19.0  60d 120